Location: Bratislava
(0.0000°N, 17.1167°E)
Time: 03:41:14
(UTC+01:00)

Cosmos 2026 Rocket - Pass Details

Date: 24 January 2021
Orbit: 940 x 1000 km, 82.9° (Epoch: 06 March)

Event Time Altitude Azimuth Distance (km) Brightness Sun altitude
Rises 18:23:00 0° 189° (S) 3,600 7.4 -4.5°
Reaches altitude 10° 18:25:29 10° 191° (S) 2,654 6.7 -5.1°
Maximum altitude 18:31:29 67° 273° (W) 1,013 4.4 -6.6°
Drops below altitude 10° 18:37:31 10° 355° (N) 2,663 6.2 -8.0°
Sets 18:40:01 0° 358° (N) 3,613 6.8 -8.6°
